DateTime,F1_A11,F1_S11,BsB_S11,BsG_S11,BsR_S11,BbsB_S11,BbsG_S11,BbsR_S11,BaB_A11,BaG_A11,BaR_A11,T_S11,U_S11,P_S11,T1_A11
2016-09-21T00:00:00Z,0000380,21000600,,,,,,,,,,26.8,00.0,0661.0,34.7
2016-09-21T00:01:00Z,0000380,21000600,,,,,,,,,,26.8,00.0,0661.0,34.7
2016-09-21T00:02:00Z,0000380,21000600,,,,,,,,,,26.8,00.0,0661.0,34.7
2016-09-21T00:03:00Z,0000380,61000600,,,,,,,,,,26.9,00.0,0661.0,34.7
2016-09-21T00:04:00Z,0000380,41000600,-000.48,0000.41,0000.07,0000.16,0000.00,-000.16,0000.12,0000.07,0000.38,27.0,00.0,0662.1,34.7
2016-09-21T00:05:00Z,0000380,01000600,0000.04,0000.43,0000.04,0000.35,0000.05,-000.14,-000.19,0000.04,0000.18,26.9,00.0,0662.1,34.7
2016-09-21T00:06:00Z,0000380,01000600,0000.15,0000.09,-000.08,0000.85,-000.43,0000.16,0000.04,-000.01,-000.14,26.9,00.0,0662.1,34.7
2016-09-21T00:07:00Z,0000380,01000600,0000.26,-000.04,-000.11,0000.88,-000.25,-000.26,0000.14,0000.02,-000.14,26.9,00.0,0662.1,34.7
2016-09-21T00:08:00Z,0000380,01000600,0000.63,0000.30,0000.33,0000.58,-000.06,0000.14,-000.25,0000.04,-000.08,26.9,00.0,0662.2,34.7
2016-09-21T00:09:00Z,0000380,01000600,0000.61,0000.43,0000.00,0000.38,-000.22,-000.06,0000.24,0000.03,0000.07,26.9,00.0,0662.2,34.7
2016-09-21T00:10:00Z,0000380,01000600,0001.32,0000.34,0000.62,0000.00,-000.16,-000.21,-000.17,-000.05,-000.08,26.9,00.0,0662.2,34.7
2016-09-21T00:11:00Z,0000380,01000600,0000.53,0000.95,0000.36,0000.54,-000.49,0000.02,0000.09,-000.04,0000.12,26.8,00.0,0662.2,34.7
2016-09-21T00:12:00Z,0000380,01000600,-000.02,0000.04,0000.00,0000.16,0000.41,-000.10,-000.10,-000.04,-000.08,26.8,00.0,0662.2,34.7
2016-09-21T00:13:00Z,0000380,01000600,0000.08,0000.60,0000.56,0000.10,0000.35,-000.16,0000.19,0000.05,0000.23,26.9,00.0,0662.2,34.7
2016-09-21T00:14:00Z,0000380,01000600,0000.73,0000.39,0000.16,-000.06,0000.29,0000.06,-000.07,-000.01,0000.10,26.9,00.0,0662.2,34.7
2016-09-21T00:15:00Z,0000380,01000600,0000.54,0000.17,0000.29,0000.34,-000.13,-000.14,0000.07,0000.03,0000.06,26.9,00.0,0662.2,34.7
2016-09-21T00:16:00Z,0000380,01000600,0000.65,0000.29,0000.24,0000.81,-000.05,-000.16,-000.16,0000.08,-000.36,26.8,00.0,0662.2,34.7
2016-09-21T00:17:00Z,0000380,01000600,-001.25,0000.21,0000.44,0000.50,0000.24,0000.13,0000.03,0000.01,0000.39,26.8,00.0,0662.3,34.7
2016-09-21T00:18:00Z,0000380,01000600,-000.03,0001.07,0000.45,-000.26,0000.21,-000.05,0000.01,-000.05,-000.44,26.8,00.0,0662.2,34.7
2016-09-21T00:19:00Z,0000380,01000600,0000.52,-000.16,-000.07,-000.08,0000.05,0000.00,-000.00,-000.07,0000.07,26.8,00.0,0662.2,34.7
2016-09-21T00:20:00Z,0000380,01000600,0001.30,-000.10,-000.04,0000.00,-000.18,-000.21,0000.00,0000.00,0000.23,26.8,00.0,0662.3,34.7
2016-09-21T00:21:00Z,0000380,01000600,0000.90,0000.30,0000.09,-000.11,0000.41,-000.08,0000.21,0000.10,0000.20,26.8,00.0,0662.3,34.7
2016-09-21T00:22:00Z,0000380,01000600,0000.06,0000.03,0000.07,0000.75,0000.24,-000.13,-000.02,0000.06,-000.35,26.8,00.0,0662.3,34.7
2016-09-21T00:23:00Z,0000380,01000600,-001.30,0000.64,0000.42,0000.37,-000.08,0000.11,-000.00,-000.19,0000.02,26.8,00.0,0662.3,34.7
2016-09-21T00:24:00Z,0000380,01000600,0000.26,0000.16,0000.20,0000.22,0000.14,-000.13,-000.05,0000.13,0000.13,26.8,00.0,0662.3,34.7
2016-09-21T00:25:00Z,0000380,01000600,-000.02,0000.14,-000.15,0000.05,-000.16,-000.06,0000.12,0000.09,0000.03,26.8,00.0,0662.3,34.7
2016-09-21T00:26:00Z,0000380,01000600,0000.37,0000.06,-000.36,-000.26,-000.02,-000.29,-000.12,-000.04,-000.29,26.8,00.0,0662.3,34.7
2016-09-21T00:27:00Z,0000380,01000600,0000.47,0000.51,-000.04,0000.73,0000.13,0000.03,0000.13,-000.01,0000.14,26.8,00.0,0662.3,34.7
2016-09-21T00:28:00Z,0000380,01000600,-000.04,-000.02,0000.02,0000.69,-000.06,-000.32,0000.07,0000.09,0000.24,26.8,00.0,0662.3,34.7
2016-09-21T00:29:00Z,0000380,01000600,-000.09,-000.94,-000.05,0000.45,-000.29,0000.27,-000.00,-000.03,-000.36,26.8,00.0,0662.3,34.7
2016-09-21T00:30:00Z,0000380,01000600,-000.48,0000.78,-000.23,0000.50,0000.21,-000.24,0000.00,-000.03,0000.16,26.8,00.0,0662.3,34.7
2016-09-21T00:31:00Z,0000380,01000600,-000.52,0000.08,0000.23,0000.56,0000.16,0000.03,0000.08,0000.15,0000.07,26.8,00.0,0662.3,34.7
2016-09-21T00:32:00Z,0000380,01000600,-000.41,0000.29,0000.03,0000.54,0000.11,-000.19,0000.04,-000.11,-000.13,26.8,00.0,0662.3,34.7
2016-09-21T00:33:00Z,0000380,01000600,0000.17,0000.27,-000.19,0000.46,-000.21,-000.18,0000.03,0000.12,-000.20,26.8,00.0,0662.3,34.7
2016-09-21T00:34:00Z,0000380,01000600,0001.16,0000.49,0000.61,0000.70,-000.27,-000.45,0000.08,-000.06,0000.23,26.8,00.0,0662.3,34.7
2016-09-21T00:35:00Z,0000380,01000600,0001.41,0000.38,0000.49,0000.48,-000.02,-000.13,-000.07,0000.03,0000.04,26.8,00.0,0662.3,34.7
2016-09-21T00:36:00Z,0000380,01000600,-000.30,0000.24,-000.14,0000.34,-000.16,0000.05,0000.02,-000.00,0000.16,26.8,00.0,0662.4,34.7
2016-09-21T00:37:00Z,0000380,01000600,0000.44,0000.73,-000.02,0000.29,-000.08,0000.06,-000.12,-000.15,-000.32,26.8,00.0,0662.4,34.7
2016-09-21T00:38:00Z,0000380,01000600,-000.66,-000.02,0000.31,0000.22,0000.30,-000.30,0000.08,0000.10,0000.15,26.8,00.0,0662.4,34.7
2016-09-21T00:39:00Z,0000380,01000600,-000.07,-000.18,0000.45,-000.05,0000.22,0000.22,-000.02,0000.01,0000.12,26.8,00.0,0662.4,34.7
2016-09-21T00:40:00Z,0000380,01000600,0000.22,0000.13,0000.79,0000.56,-000.16,0000.24,0000.14,0000.11,-000.16,26.8,00.0,0662.4,34.7
2016-09-21T00:41:00Z,0000380,01000600,0000.70,-000.04,0000.17,0000.42,-000.02,0000.00,0000.04,0000.07,0000.32,26.8,00.0,0662.4,34.7
2016-09-21T00:42:00Z,0000380,01000600,-000.10,0000.38,0000.08,0000.11,-000.22,-000.02,-000.19,-000.09,-000.25,26.8,00.0,0662.4,34.7
2016-09-21T00:43:00Z,0000380,01000600,0000.14,-000.34,-000.07,-000.08,0000.10,0000.10,-000.09,-000.11,0000.19,26.8,00.0,0662.4,34.7
2016-09-21T00:44:00Z,0000380,01000600,-000.02,0000.12,0000.08,0000.06,0000.25,-000.16,0000.22,0000.08,0000.01,26.8,00.0,0662.4,34.7
2016-09-21T00:45:00Z,0000380,01000600,-000.44,0000.56,0000.24,-000.03,-000.05,-000.14,-000.07,0000.08,0000.05,26.8,00.0,0662.4,34.7
2016-09-21T00:46:00Z,0000380,01000600,-000.02,0000.02,-000.02,0000.10,-000.03,0000.22,0000.00,0000.18,-000.23,26.8,00.0,0662.5,34.7
2016-09-21T00:47:00Z,0000380,01000600,0000.04,0000.53,-000.09,0000.45,0000.16,-000.37,0000.04,-000.20,-000.08,26.8,00.0,0662.5,34.7
2016-09-21T00:48:00Z,0000380,01000600,0000.46,0000.67,-000.03,-000.32,0000.10,-000.21,0000.06,0000.24,0000.15,26.8,00.0,0662.5,34.7
2016-09-21T00:49:00Z,0000380,01000600,0000.20,0000.79,-000.25,0000.78,-000.13,-000.42,-000.16,-000.31,0000.16,26.8,00.0,0662.5,34.7
2016-09-21T00:50:00Z,0000380,01000600,0000.00,0000.74,0000.31,-000.50,0000.32,-000.29,0000.11,0000.11,-000.04,26.8,00.0,0662.5,34.7
2016-09-21T00:51:00Z,0000380,01000600,0001.09,0000.48,0000.23,0000.42,0000.00,-000.16,-000.13,-000.00,0000.08,26.8,00.0,0662.5,34.7
2016-09-21T00:52:00Z,0000380,01000600,-000.09,0000.47,-000.64,0000.19,0000.40,0000.03,-000.05,0000.01,0000.03,26.8,00.0,0662.5,34.7
2016-09-21T00:53:00Z,0000380,01000600,0000.59,0000.30,0000.25,0000.11,-000.05,0000.34,0000.22,-000.02,-000.16,26.8,00.0,0662.5,34.7
2016-09-21T00:54:00Z,0000380,01000600,-000.33,-000.01,-000.06,0000.96,-000.11,-000.34,-000.00,0000.15,-000.01,26.8,00.0,0662.5,34.7
2016-09-21T00:55:00Z,0000380,01000600,-000.05,-000.04,0000.07,-000.13,0000.51,0000.27,0000.03,-000.04,0000.27,26.8,00.0,0662.4,34.7
2016-09-21T00:56:00Z,0000380,01000600,0001.23,0000.96,0000.41,0000.06,-000.27,-000.24,0000.02,0000.06,0000.06,26.8,00.0,0662.4,34.7
2016-09-21T00:57:00Z,0000380,41000600,,,,,,,,,,,,0662.4,34.7
2016-09-21T00:58:00Z,0000380,61000600,,,,,,,,,,26.7,00.0,0661.4,34.7
2016-09-21T00:59:00Z,0000380,21000600,,,,,,,,,,26.7,00.0,0661.3,34.7
2016-09-21T01:00:00Z,0000380,21000600,,,,,,,,,,26.7,00.0,0661.3,34.7
2016-09-21T01:01:00Z,0000380,21000600,,,,,,,,,,26.7,00.0,0661.3,34.7
2016-09-21T01:02:00Z,0000380,21000600,,,,,,,,,,26.7,00.0,0661.3,34.7
2016-09-21T01:03:00Z,0000380,61000600,,,,,,,,,,26.7,00.0,0661.3,34.7
2016-09-21T01:04:00Z,0000380,41000600,0000.39,-000.06,0000.42,-000.11,0000.40,0000.32,-000.01,-000.00,-000.13,26.8,00.0,0662.4,34.7
2016-09-21T01:05:00Z,0000380,01000600,0000.48,-000.26,0000.65,-000.03,-000.03,0000.43,0000.08,0000.06,-000.01,26.8,00.0,0662.4,34.7
2016-09-21T01:06:00Z,0000380,01000600,0000.52,-000.42,-000.31,0000.40,0000.10,-000.14,0000.13,0000.10,0000.08,26.8,00.0,0662.4,34.7
2016-09-21T01:07:00Z,0000380,01000600,-000.31,-000.56,0000.66,-000.24,0000.51,0000.48,-000.10,-000.13,0000.23,26.8,00.0,0662.5,34.7
2016-09-21T01:08:00Z,0000380,01000600,0000.30,-000.10,0000.08,-000.69,0000.17,0000.08,0000.20,0000.13,-000.33,26.8,00.0,0662.5,34.7
2016-09-21T01:09:00Z,0000380,01000600,-000.06,0000.22,0000.35,0000.13,-000.24,0000.11,0000.07,0000.05,0000.03,26.8,00.0,0662.5,34.7
2016-09-21T01:10:00Z,0000380,01000600,-001.58,0000.80,0000.56,-000.30,0000.45,0000.24,-000.05,-000.05,0000.18,26.8,00.0,0662.5,34.7
2016-09-21T01:11:00Z,0000380,01000600,-000.63,0000.62,0000.02,-000.35,0000.70,0000.08,0000.00,0000.13,0000.07,26.8,00.0,0662.5,34.7
2016-09-21T01:12:00Z,0000380,01000600,-000.30,0000.34,0000.17,0000.27,0000.30,0000.11,-000.04,-000.15,0000.05,26.8,00.0,0662.5,34.7
2016-09-21T01:13:00Z,0000380,01000600,0001.44,0000.31,0000.30,-000.22,0000.27,0000.30,-000.07,0000.15,0000.24,26.8,00.0,0662.5,34.7
2016-09-21T01:14:00Z,0000380,01000600,0000.23,0000.42,0000.58,-000.10,-000.13,0000.35,0000.01,0000.07,-000.21,26.8,00.0,0662.5,34.7
2016-09-21T01:15:00Z,0000380,01000600,0000.30,0000.36,0000.21,-000.32,0000.54,0000.34,0000.18,-000.10,0000.20,26.8,00.0,0662.5,34.7
2016-09-21T01:16:00Z,0000380,01000600,-000.10,0000.09,0000.35,-000.11,0000.05,0000.08,-000.01,0000.10,-000.16,26.8,00.0,0662.5,34.7
2016-09-21T01:17:00Z,0000380,01000600,0000.78,0000.41,0001.18,-000.59,0000.24,0000.37,0000.02,0000.14,0000.05,26.7,00.0,0662.5,34.7
2016-09-21T01:18:00Z,0000380,01000600,0001.20,0000.47,0000.12,-000.13,0000.16,0000.02,-000.10,-000.11,0000.33,26.7,00.0,0662.4,34.7
2016-09-21T01:19:00Z,0000380,01000600,0000.21,-000.15,0000.48,0000.22,0000.02,0000.32,0000.25,-000.01,0000.17,26.7,00.0,0662.5,34.7
2016-09-21T01:20:00Z,0000380,01000600,-000.26,-000.16,0000.49,-000.32,-000.40,0000.27,-000.04,-000.06,-000.52,26.8,00.0,0662.5,34.7
2016-09-21T01:21:00Z,0000380,01000600,-001.27,0000.07,0000.00,0000.93,0000.03,0000.08,-000.06,0000.06,0000.33,26.8,00.0,0662.5,34.7
2016-09-21T01:22:00Z,0000380,01000600,0000.07,0000.48,0000.64,0000.14,0000.22,0000.03,-000.10,0000.01,-000.46,26.8,00.0,0662.5,34.7
2016-09-21T01:23:00Z,0000380,01000600,-000.27,0000.09,0000.31,-000.53,0000.30,0000.37,-000.12,0000.01,0000.23,26.8,00.0,0662.5,34.7
2016-09-21T01:24:00Z,0000380,01000600,0000.53,0000.02,0000.48,-000.37,0000.00,-000.10,0000.25,0000.22,0000.09,26.7,00.0,0662.5,34.7
2016-09-21T01:25:00Z,0000380,01000600,-000.46,0000.47,0001.18,-000.10,0000.21,0000.40,-000.08,-000.01,0000.14,26.7,00.0,0662.6,34.7
2016-09-21T01:26:00Z,0000380,01000600,-001.47,0000.39,-000.10,0000.27,-000.03,0000.27,-000.00,-000.20,-000.09,26.7,00.0,0662.6,34.7
2016-09-21T01:27:00Z,0000380,01000600,-001.24,-000.24,-000.14,-000.03,0000.30,-000.10,0000.00,0000.06,-000.02,26.7,00.0,0662.6,34.7
2016-09-21T01:28:00Z,0000380,01000600,-000.34,0000.34,0000.13,-000.37,0000.51,0000.11,0000.07,0000.09,0000.10,26.7,00.0,0662.6,34.7
2016-09-21T01:29:00Z,0000380,01000600,0000.13,-000.65,0000.48,-000.35,0000.48,0000.40,0000.04,0000.04,0000.10,26.7,00.0,0662.6,34.7
2016-09-21T01:30:00Z,0000380,01000600,0000.00,0000.40,0000.69,-000.35,0000.38,0000.22,0000.10,0000.00,-000.11,26.7,00.0,0662.5,34.7
2016-09-21T01:31:00Z,0000380,01000600,0000.55,0000.13,0000.60,-000.16,-000.16,0000.50,-000.16,-000.01,-000.17,26.7,00.0,0662.6,34.7
2016-09-21T01:32:00Z,0000380,01000600,0000.04,0000.37,0000.06,-000.94,-000.13,0000.14,-000.09,0000.03,0000.01,26.7,00.0,0662.6,34.7
2016-09-21T01:33:00Z,0000380,01000600,0000.44,0000.15,-000.04,-000.46,0000.49,0000.34,0000.07,-000.13,0000.26,26.7,00.0,0662.6,34.7
2016-09-21T01:34:00Z,0000380,01000600,-000.02,0000.09,0000.37,0000.16,0000.21,0000.03,0000.14,0000.21,-000.03,26.7,00.0,0662.5,34.7
2016-09-21T01:35:00Z,0000380,01000600,0000.02,0000.00,0000.15,-000.35,0000.21,-000.08,-000.20,-000.25,-000.32,26.7,00.0,0662.6,34.7
2016-09-21T01:36:00Z,0000380,01000600,0000.39,-000.04,0001.05,0000.32,0000.00,0000.03,0000.25,0000.11,0000.24,26.8,00.0,0662.6,34.7
2016-09-21T01:37:00Z,0000380,01000600,-000.12,0000.06,0000.09,-000.03,-000.38,0000.13,-000.07,0000.21,-000.15,26.7,00.0,0662.6,34.7
2016-09-21T01:38:00Z,0000380,01000600,-000.04,0000.11,0000.48,0000.34,0000.05,0000.16,0000.09,0000.04,0000.21,26.8,00.0,0662.6,34.7
2016-09-21T01:39:00Z,0000380,01000600,0000.86,0000.02,0000.40,-000.13,0000.05,0000.00,0000.11,-000.03,-000.11,26.8,00.0,0662.6,34.7
2016-09-21T01:40:00Z,0000380,01000600,-000.02,-000.10,0000.98,-000.18,-000.05,0000.11,-000.03,0000.11,0000.09,26.8,00.0,0662.6,34.7
2016-09-21T01:41:00Z,0000380,01000600,0000.57,-000.29,0000.30,0000.21,0000.32,-000.26,0000.04,-000.21,-000.02,26.8,00.0,0662.6,34.7
2016-09-21T01:42:00Z,0000380,01000600,0000.29,0000.68,0001.07,-000.35,0000.16,0000.66,-000.07,0000.08,0000.23,26.8,00.0,0662.6,34.7
2016-09-21T01:43:00Z,0000380,01000600,0000.08,0000.14,0000.37,-000.29,0000.14,0000.46,0000.16,-000.07,-000.29,26.8,00.0,0662.6,34.7
2016-09-21T01:44:00Z,0000380,01000600,-001.03,0000.75,0000.42,-000.30,-000.06,-000.30,0000.05,0000.11,0000.05,26.8,00.0,0662.6,34.7
2016-09-21T01:45:00Z,0000380,01000600,0000.09,-000.20,0000.32,0000.32,-000.03,0000.37,-000.17,0000.12,0000.06,26.8,00.0,0662.6,34.7
2016-09-21T01:46:00Z,0000380,01000600,0000.20,0000.00,0000.15,-000.08,0000.48,0000.05,0000.25,0000.03,0000.14,26.8,00.0,0662.6,34.7
2016-09-21T01:47:00Z,0000380,01000600,-001.16,0000.02,0000.33,0000.03,0000.19,0000.21,0000.03,0000.12,-000.00,26.8,00.0,0662.6,34.7
2016-09-21T01:48:00Z,0000380,01000600,-000.19,0000.38,0000.18,0000.27,0000.17,0000.59,0000.05,-000.26,0000.04,26.8,00.0,0662.6,34.7
2016-09-21T01:49:00Z,0000380,01000600,-000.20,0000.50,0000.37,0000.37,0000.02,0000.32,-000.11,0000.13,-000.34,26.8,00.0,0662.6,34.7
2016-09-21T01:50:00Z,0000380,01000600,-000.14,0000.06,-000.02,-000.35,0000.14,0000.16,0000.08,-000.04,0000.49,26.8,00.0,0662.6,34.7
2016-09-21T01:51:00Z,0000380,01000600,-000.40,0000.43,0000.48,0000.11,0000.60,0000.30,-000.01,-000.01,-000.15,26.8,00.0,0662.6,34.7
2016-09-21T01:52:00Z,0000380,01000600,-000.58,0000.19,0000.09,-000.27,0000.54,-000.06,-000.00,0000.09,-000.21,26.8,00.0,0662.6,34.7
2016-09-21T01:53:00Z,0000380,01000600,-000.05,0000.53,-000.07,-000.14,0000.08,0000.32,-000.05,-000.03,0000.19,26.8,00.0,0662.6,34.7
2016-09-21T01:54:00Z,0000380,01000600,0000.06,0000.23,0000.53,-000.21,-000.21,-000.34,0000.12,0000.16,0000.02,26.8,00.0,0662.6,34.7
2016-09-21T01:55:00Z,0000380,01000600,0001.08,0000.58,0000.02,0000.14,-000.05,0000.30,0000.13,0000.04,0000.29,26.8,00.0,0662.6,34.7
2016-09-21T01:56:00Z,0000380,01000600,0000.48,-000.45,0000.55,0000.11,0000.08,-000.03,-000.05,-000.11,-000.10,26.7,00.0,0662.6,34.7
2016-09-21T01:57:00Z,0000380,41000600,,,,,,,,,,,,0662.5,34.7
2016-09-21T01:58:00Z,0000380,61000600,,,,,,,,,,26.7,00.0,0661.5,34.7
2016-09-21T01:59:00Z,0000380,21000600,,,,,,,,,,26.7,00.0,0661.5,34.7
2016-09-21T02:00:00Z,0000380,21000600,,,,,,,,,,26.8,00.0,0661.5,34.7
2016-09-21T02:01:00Z,0000380,21000600,,,,,,,,,,26.8,00.0,0661.5,34.7
2016-09-21T02:02:00Z,0000380,21000600,,,,,,,,,,26.8,00.0,0661.5,34.7
2016-09-21T02:03:00Z,0000380,61000600,,,,,,,,,,26.8,00.0,0661.5,34.7
2016-09-21T02:04:00Z,0000380,41000600,0000.57,0000.04,-000.17,0000.50,-000.02,-000.26,-000.32,-000.03,-000.15,26.8,00.0,0662.5,34.7
2016-09-21T02:05:00Z,0000380,01000600,0000.93,0000.78,0000.00,0000.00,0000.06,0000.03,0000.14,0000.11,0000.08,26.8,00.0,0662.5,34.7
2016-09-21T02:06:00Z,0000380,01000600,0000.35,0000.47,0000.33,-000.02,0000.52,0000.16,-000.08,-000.16,0000.01,26.8,00.0,0662.5,34.7
2016-09-21T02:07:00Z,0000380,01000600,0000.79,0000.57,-000.22,-000.10,0000.52,-000.03,0000.09,0000.22,0000.11,26.8,00.0,0662.5,34.7
2016-09-21T02:08:00Z,0000380,01000600,0001.03,0000.45,0000.28,-000.03,0000.38,0000.35,0000.18,-000.10,0000.15,26.8,00.0,0662.5,34.7
2016-09-21T02:09:00Z,0000380,01000600,0000.83,0000.21,0000.29,0000.38,0000.57,-000.05,-000.21,0000.08,-000.24,26.8,00.0,0662.5,34.7
2016-09-21T02:10:00Z,0000380,01000600,-000.11,0000.47,0000.15,-000.27,0000.06,0000.37,0000.35,0000.04,0000.26,26.8,00.0,0662.5,34.7
2016-09-21T02:11:00Z,0000380,01000600,0000.87,0000.51,0000.20,-000.24,0000.06,0000.34,-000.31,-000.08,-000.04,26.8,00.0,0662.6,34.7
2016-09-21T02:12:00Z,0000380,01000600,0000.61,0000.30,0000.10,0000.65,-000.05,-000.16,0000.01,0000.12,-000.18,26.8,00.0,0662.6,34.7
2016-09-21T02:13:00Z,0000380,01000600,0001.45,0001.26,0000.44,-000.14,0000.14,0000.29,-000.07,-000.13,0000.07,26.8,00.0,0662.6,34.7
2016-09-21T02:14:00Z,0000380,01000600,0001.25,0000.74,0000.35,0000.05,0000.16,0000.43,0000.17,0000.02,0000.17,26.8,00.0,0662.6,34.7
2016-09-21T02:15:00Z,0000380,01000600,-000.02,0000.65,0000.10,0000.34,0000.05,0000.02,-000.07,0000.05,-000.24,26.8,00.0,0662.6,34.7
2016-09-21T02:16:00Z,0000380,01000600,0001.05,-000.19,0000.26,0000.45,0000.54,0000.32,-000.04,0000.07,0000.17,26.8,00.0,0662.6,34.7
2016-09-21T02:17:00Z,0000380,01000600,0000.64,0001.05,0000.13,0000.45,0000.14,0000.05,0000.14,0000.05,0000.07,26.8,00.0,0662.6,34.7
2016-09-21T02:18:00Z,0000380,01000600,0001.22,0000.10,0000.49,0000.13,0000.11,0000.30,-000.02,-000.00,0000.13,26.8,00.0,0662.6,34.7
2016-09-21T02:19:00Z,0000380,01000600,0000.87,0000.55,0000.47,-000.11,0000.25,0000.35,0000.10,0000.03,-000.12,26.8,00.0,0662.6,34.7
2016-09-21T02:20:00Z,0000380,01000600,0001.26,0000.53,-000.18,-000.42,0000.08,-000.27,-000.11,-000.04,-000.16,26.8,00.0,0662.6,34.7
2016-09-21T02:21:00Z,0000380,01000600,0000.62,0000.37,0000.31,0000.50,0000.05,0000.45,-000.04,0000.09,0000.13,26.8,00.0,0662.6,34.7
2016-09-21T02:22:00Z,0000380,01000600,-000.24,0000.29,0000.32,-000.24,-000.32,-000.05,0000.06,0000.06,0000.15,26.8,00.0,0662.6,34.7
2016-09-21T02:23:00Z,0000380,01000600,0000.99,0000.48,0000.94,-000.02,0000.45,0000.29,-000.03,-000.12,-000.10,26.8,00.0,0662.6,34.7
2016-09-21T02:24:00Z,0000380,01000600,0000.56,0000.53,0000.91,-000.03,0000.22,0000.58,0000.19,-000.02,0000.04,26.8,00.0,0662.6,34.7
2016-09-21T02:25:00Z,0000380,01000600,0000.51,-000.19,0000.04,0000.26,0000.03,-000.46,-000.02,0000.14,0000.20,26.8,00.0,0662.6,34.7
2016-09-21T02:26:00Z,0000380,01000600,0001.09,0000.16,0000.36,-000.08,0000.27,0000.21,-000.12,-000.06,-000.34,26.8,00.0,0662.5,34.7
2016-09-21T02:27:00Z,0000380,01000600,0000.81,0000.11,0000.73,-000.06,0000.49,-000.26,0000.17,0000.04,-000.23,26.8,00.0,0662.5,34.7
2016-09-21T02:28:00Z,0000380,01000600,0000.81,0000.95,0000.52,-000.40,0000.21,0000.46,0000.04,0000.06,0000.50,26.8,00.0,0662.5,34.7
2016-09-21T02:29:00Z,0000380,01000600,0001.42,0000.53,0000.26,0000.13,0000.35,-000.06,0000.01,-000.04,-000.03,26.8,00.0,0662.5,34.7
2016-09-21T02:30:00Z,0000380,01000600,0000.70,0000.03,0000.06,-000.21,-000.02,0000.21,-000.00,-000.08,-000.08,26.8,00.0,0662.5,34.7
2016-09-21T02:31:00Z,0000380,01000600,0000.56,0000.32,0000.49,-000.13,0000.57,0000.05,0000.09,-000.01,-000.16,26.8,00.0,0662.5,34.7
2016-09-21T02:32:00Z,0000380,01000600,0000.45,0000.02,0000.23,-000.19,-000.17,0000.22,-000.06,0000.02,-000.07,26.8,00.0,0662.6,34.7
2016-09-21T02:33:00Z,0000380,01000600,0000.09,0000.16,0000.29,-000.57,0000.73,0000.14,-000.02,0000.14,0000.22,26.8,00.0,0662.6,34.7
2016-09-21T02:34:00Z,0000380,01000600,0000.05,0000.25,-000.02,0000.78,0000.70,0000.22,-000.09,-000.08,0000.02,26.8,00.0,0662.6,34.7
2016-09-21T02:35:00Z,0000380,01000600,0000.84,0000.05,-000.04,0000.30,-000.17,-000.10,0000.38,0000.02,0000.11,26.8,00.0,0662.5,34.7
2016-09-21T02:36:00Z,0000380,01000600,0000.58,0000.26,0000.03,-000.24,0000.24,-000.06,-000.22,-000.00,-000.15,26.8,00.0,0662.6,34.7
2016-09-21T02:37:00Z,0000380,01000600,0000.66,0000.53,0000.03,0000.46,0000.13,0000.27,0000.03,0000.05,-000.05,26.8,00.0,0662.6,34.7
2016-09-21T02:38:00Z,0000380,01000600,0002.07,0000.83,-000.26,-000.37,0000.11,-000.02,0000.04,0000.04,0000.24,26.8,00.0,0662.6,34.7
2016-09-21T02:39:00Z,0000380,01000600,0000.67,0000.37,0000.30,0000.69,0000.38,-000.11,0000.08,-000.04,-000.08,26.8,00.0,0662.6,34.7
2016-09-21T02:40:00Z,0000380,01000600,0000.88,0000.40,0000.42,-000.21,0000.02,0000.48,-000.07,0000.11,-000.04,26.8,00.0,0662.6,34.7
2016-09-21T02:41:00Z,0000380,01000600,0000.95,0000.19,-000.06,0000.18,0000.00,0000.43,0000.08,-000.06,0000.01,26.8,00.0,0662.6,34.7
2016-09-21T02:42:00Z,0000380,01000600,0000.85,0000.47,0000.00,0001.34,-000.02,0000.19,-000.04,0000.02,-000.06,26.8,00.0,0662.6,34.7
2016-09-21T02:43:00Z,0000380,01000600,0000.78,0000.16,0000.26,-000.59,0000.43,0000.06,0000.06,0000.13,0000.12,26.8,00.0,0662.6,34.7
2016-09-21T02:44:00Z,0000380,01000600,0001.02,0000.80,0000.08,0000.10,0000.21,0000.00,0000.07,-000.10,-000.14,26.8,00.0,0662.6,34.7
2016-09-21T02:45:00Z,0000380,01000600,0000.31,0000.57,0000.11,0000.34,0000.43,0000.00,-000.14,-000.01,0000.16,26.8,00.0,0662.6,34.7
2016-09-21T02:46:00Z,0000380,01000600,0000.11,0000.31,0000.26,0000.50,0000.41,0000.11,0000.02,0000.10,-000.11,26.8,00.0,0662.6,34.7
2016-09-21T02:47:00Z,0000380,01000600,0001.79,0000.53,-000.21,0000.27,0000.65,0000.29,-000.01,-000.18,0000.16,26.8,00.0,0662.6,34.7
2016-09-21T02:48:00Z,0000380,01000600,0001.64,0000.76,0000.06,0000.00,0000.33,0000.19,0000.21,0000.10,0000.06,26.8,00.0,0662.6,34.7
2016-09-21T02:49:00Z,0000380,01000600,0001.43,0000.58,0000.02,0000.21,0000.25,-000.37,0000.05,0000.08,-000.10,26.8,00.0,0662.6,34.7
2016-09-21T02:50:00Z,0000380,01000600,0000.83,0000.89,0000.01,-000.29,-000.14,0000.19,-000.07,0000.03,0000.10,26.8,00.0,0662.6,34.7
2016-09-21T02:51:00Z,0000380,01000600,0000.95,0000.47,0000.02,-000.93,0000.33,0000.24,-000.06,0000.03,-000.18,26.8,00.0,0662.6,34.7
2016-09-21T02:52:00Z,0000380,01000600,0000.77,0000.44,0000.04,-000.02,0000.02,0000.70,0000.06,-000.13,-000.24,26.8,00.0,0662.6,34.7
2016-09-21T02:53:00Z,0000380,01000600,0000.58,0000.29,0000.55,-000.50,0000.56,0000.16,-000.01,0000.04,0000.10,26.8,00.0,0662.6,34.7
2016-09-21T02:54:00Z,0000380,01000600,0000.72,0000.26,-000.02,0000.27,0000.45,0000.00,0000.04,0000.16,0000.29,26.8,00.0,0662.6,34.7
2016-09-21T02:55:00Z,0000380,01000600,0000.72,0000.72,0000.20,0000.11,0000.78,-000.27,0000.03,0000.01,-000.23,26.7,00.0,0662.6,34.7
2016-09-21T02:56:00Z,0000380,01000600,0000.40,0000.65,0000.16,-000.46,0000.13,0000.32,0000.17,-000.12,0000.02,26.8,00.0,0662.6,34.7
2016-09-21T02:57:00Z,0000380,41000600,,,,,,,,,,,,0662.7,34.7
2016-09-21T02:58:00Z,0000380,61000600,,,,,,,,,,26.7,00.0,0661.6,34.7
2016-09-21T02:59:00Z,0000380,21000600,,,,,,,,,,26.7,00.0,0661.6,34.7
2016-09-21T03:00:00Z,0000380,21000600,,,,,,,,,,26.7,00.0,0661.6,34.7
2016-09-21T03:01:00Z,0000380,21000600,,,,,,,,,,26.7,00.0,0661.6,34.7
2016-09-21T03:02:00Z,0000380,21000600,,,,,,,,,,26.7,00.0,0661.6,34.7
2016-09-21T03:03:00Z,0000380,61000600,,,,,,,,,,26.7,00.0,0661.6,34.7
2016-09-21T03:04:00Z,0000380,41000600,0000.62,0000.64,0000.21,0000.53,0000.41,0000.06,0000.04,-000.05,0000.22,26.7,00.0,0662.6,34.7
2016-09-21T03:05:00Z,0000380,01010600,0000.15,-000.14,-000.32,0000.21,-000.02,-000.16,0000.03,0000.03,0000.06,26.7,00.0,0662.7,34.7
2016-09-21T03:06:00Z,0000380,01000600,0000.76,0001.29,0000.58,0000.77,0000.32,0000.05,-000.13,0000.03,-000.22,26.7,00.0,0662.7,34.7
2016-09-21T03:07:00Z,0000380,01000600,-000.29,0000.48,-000.10,-000.13,0000.51,0000.02,0000.19,-000.01,0000.07,26.7,00.0,0662.7,34.7
2016-09-21T03:08:00Z,0000380,01000600,-001.32,0000.55,0000.15,0000.37,0000.17,-000.26,-000.20,-000.05,-000.13,26.7,00.0,0662.7,34.7
2016-09-21T03:09:00Z,0000380,01000600,0000.07,0000.30,0000.11,0000.24,0000.57,-000.13,0000.13,0000.11,0000.08,26.7,00.0,0662.8,34.7
2016-09-21T03:10:00Z,0000380,01000600,-000.18,0000.54,-000.15,-000.38,0000.46,-000.11,0000.07,0000.05,0000.18,26.7,00.0,0662.8,34.7
2016-09-21T03:11:00Z,0000380,01000600,-000.28,0001.19,-000.55,0000.35,-000.10,-000.48,0000.04,0000.06,-000.23,26.7,00.0,0662.8,34.7
2016-09-21T03:12:00Z,0000380,01000600,0000.35,0000.40,-000.19,0000.08,0000.10,-000.29,0000.02,-000.10,0000.00,26.7,00.0,0662.8,34.7